This demonstration page uses our WeatherBlox Daily Observations layout. Learn more.

Left ArrowRight Arrow

39.29038, -76.61219

Hourly Observations for June 27, 2022

Temp ( °F °C ) Dew Point ( °F °C ) Humidity (%) Winds ( mph kmh ) Pressure ( in mb ) Visibility ( mi km ) Precip ( " mm )
12:54 am 00:54 Mostly Cloudy 76 24.4 68 20 77 77 S 6 9 30.00 1016 10 16 0.00 0.00
1:54 am 01:54 Mostly Cloudy 75 23.9 68 20 79 79 S 5 7 29.99 1016 10 16 0.00 0.00
2:54 am 02:54 Mostly Cloudy 74 23.3 68 20 82 82 S 5 7 29.96 1015 10 16 0.00 0.00
3:54 am 03:54 Partly Cloudy 74 23.3 68 20 82 82 WSW 6 9 29.96 1015 10 16 0.00 0.00
4:54 am 04:54 Mostly Cloudy 74 23.3 67 19.4 79 79 VRB 5 7 29.95 1014 10 16 0.00 0.00
5:54 am 05:54 Mostly Cloudy 74 23.3 67 19.4 79 79 SSW 3 6 29.95 1014 10 16 0.00 0.00
6:54 am 06:54 Mostly Cloudy 75 23.9 67 19.4 76 76 SSW 6 9 29.96 1014 10 16 0.00 0.00
7:54 am 07:54 Mostly Cloudy 76 24.4 67 19.4 74 74 SSW 5 7 29.96 1015 10 16 0.00 0.00
8:54 am 08:54 Mostly Cloudy 78 25.6 68 20 71 71 SSW 9 15 29.96 1015 10 16 0.00 0.00
9:54 am 09:54 Mostly Cloudy 79 26.1 69 20.6 72 72 SW 6 9 29.97 1015 10 16 0.00 0.00
10:54 am 10:54 Cloudy 81 27.2 71 21.7 72 72 W 8 13 29.97 1015 10 16 0.00 0.00
11:54 am 11:54 Cloudy 82 27.8 71 21.7 69 69 W 12 19 29.97 1015 10 16 0.00 0.00
12:49 pm 12:49 Cloudy with Light Rain 77 25 72 22 83 83 W 10 17 29.97 1015 8 13 0.00 0.00
12:54 pm 12:54 Cloudy with Light Rain 77 25 73 22.8 88 88 W 8 13 29.97 1015 9 14 0.00 0.00
1:54 pm 13:54 Cloudy with Light Rain 78 25.6 71 21.7 79 79 W 10 17 29.97 1015 10 16 0.01 0.25
2:54 pm 14:54 Mostly Cloudy 81 27.2 67 19.4 62 62 WNW 12 19 29.95 1014 10 16 0.00 0.00
3:54 pm 15:54 Mostly Cloudy 79 26.1 65 18.3 62 62 NW 10 17 29.95 1014 10 16 0.00 0.00
4:54 pm 16:54 Mostly Cloudy 83 28.3 64 17.8 53 53 NNW 9 15 29.95 1014 10 16 0.00 0.00
5:54 pm 17:54 Partly Cloudy 83 28.3 62 16.7 49 49 NNW 7 11 29.95 1014 10 16 0.00 0.00
6:54 pm 18:54 Partly Cloudy 81 27.2 61 16.1 51 51 NW 7 11 29.97 1015 10 16 0.00 0.00
7:54 pm 19:54 Partly Cloudy 80 26.7 60 15.6 51 51 WNW 5 7 29.99 1016 10 16 0.00 0.00
8:54 pm 20:54 Partly Cloudy 76 24.4 62 16.7 62 62 VRB 5 7 30.00 1016 10 16 0.00 0.00
9:54 pm 21:54 Mostly Clear 73 22.8 63 17.2 71 71 WNW 6 9 30.02 1017 10 16 0.00 0.00
10:54 pm 22:54 Clear 72 22.2 58 14.4 61 61 WNW 6 9 30.03 1017 10 16 0.00 0.00
11:54 pm 23:54 Clear 72 22.2 53 11.7 52 52 NW 7 11 30.05 1018 10 16 0.00 0.00

Powered by AerisWeather